Temp
-9 -9 -10 -10 -10 -10 -10 -10 -10 -10 -10 -10 -11 -11 -10 -10 -9 -10 -10 -11 -11 -11 -11 -11 -11 -12 -12 -12 -12 -12 -13 -13 -13 -13 -14 -14 -14 -14 -14 -14 -14 -14 -14
-9 -9 -10 -10 -10 -10 -10 -10 -10 -11 -10 -10 -10 -11 -11 -11 -11 -10 -10 -10 -11 -12 -12 -12 -12 -12 -13 -13 -13 -13 -13 -13 -13 -14 -14 -14 -14 -14 -14 -14 -14 -15 -15
-9 -9 -10 -10 -10 -11 -10 -10 -11 -11 -11 -10 -10 -10 -11 -11 -11 -12 -12 -11 -11 -11 -12 -13 -12 -12 -13 -13 -13 -13 -13 -13 -13 -14 -14 -14 -14 -15 -14 -14 -14 -15 -14
-9 -10 -10 -10 -10 -10 -10 -11 -11 -11 -12 -12 -11 -11 -11 -11 -12 -12 -12 -12 -13 -12 -12 -12 -13 -12 -12 -13 -13 -14 -13 -13 -14 -14 -14 -14 -14 -15 -15 -15 -14 -14 -14
-10 -10 -10 -10 -10 -10 -10 -10 -10 -11 -11 -12 -12 -12 -12 -12 -11 -12 -12 -12 -12 -13 -13 -13 -13 -13 -13 -13 -13 -14 -14 -13 -14 -14 -14 -14 -14 -15 -15 -15 -14 -14 -15
-10 -10 -11 -11 -10 -10 -9 -9 -10 -10 -11 -11 -12 -12 -12 -12 -12 -12 -12 -12 -13 -13 -13 -14 -14 -14 -13 -13 -13 -14 -14 -15 -14 -14 -14 -14 -14 -14 -14 -15 -14 -14 -14
-11 -11 -11 -10 -10 -10 -10 -10 -10 -10 -9 -10 -10 -10 -11 -11 -12 -13 -13 -13 -13 -13 -14 -13 -13 -14 -14 -14 -14 -14 -14 -15 -14 -14 -14 -14 -14 -14 -14 -14 -14 -14 -15
-12 -11 -11 -11 -11 -11 -10 -10 -10 -11 -11 -11 -11 -12 -12 -12 -12 -13 -14 -15 -14 -14 -15 -16 -15 -14 -14 -14 -14 -14 -14 -14 -14 -14 -14 -14 -13 -14 -14 -14 -14 -15 -14
-12 -12 -12 -12 -11 -11 -11 -11 -11 -11 -12 -12 -12 -13 -14 -15 -16 -17 -17 -16 -16 -16 -15 -17 -16 -15 -15 -14 -14 -14 -14 -15 -14 -14 -15 -14 -14 -15 -14 -14 -14 -14 -14
-13 -13 -13 -12 -12 -12 -12 -12 -13 -12 -13 -15 -16 -16 -17 -18 -19 -20 -19 -19 -19 -19 -18 -17 -17 -17 -16 -15 -14 -14 -14 -15 -14 -14 -15 -14 -14 -14 -14 -14 -15 -14 -15
-14 -14 -13 -13 -13 -13 -13 -14 -14 -15 -16 -17 -19 -19 -19 -19 -20 -19 -19 -18 -18 -19 -18 -17 -17 -16 -16 -16 -15 -15 -15 -15 -15 -14 -15 -15 -14 -14 -15 -14 -14 -14 -14
-14 -14 -14 -13 -13 -13 -14 -16 -18 -19 -19 -19 -19 -19 -19 -20 -20 -19 -19 -18 -18 -17 -19 -18 -18 -17 -16 -16 -16 -15 -15 -14 -15 -15 -15 -15 -14 -14 -15 -15 -15 -14 -14
-14 -14 -14 -14 -15 -16 -17 -18 -19 -19 -20 -20 -20 -21 -20 -20 -19 -19 -19 -18 -18 -17 -17 -18 -17 -18 -18 -17 -17 -16 -16 -15 -15 -15 -15 -14 -15 -15 -15 -16 -15 -15 -15
-15 -15 -16 -17 -18 -20 -20 -20 -20 -20 -21 -22 -22 -22 -20 -20 -19 -19 -19 -17 -18 -18 -17 -16 -17 -17 -18 -17 -17 -15 -16 -15 -15 -16 -15 -15 -15 -16 -15 -15 -15 -15 -16
-17 -18 -19 -21 -21 -21 -21 -21 -22 -23 -24 -23 -23 -22 -20 -20 -19 -19 -19 -18 -17 -17 -17 -17 -17 -17 -17 -17 -17 -17 -16 -15 -15 -15 -15 -15 -16 -16 -16 -16 -15 -17 -18
-19 -20 -22 -22 -22 -22 -23 -24 -24 -24 -24 -25 -23 -22 -20 -19 -19 -19 -19 -17 -17 -17 -18 -18 -17 -18 -18 -17 -17 -17 -16 -17 -16 -15 -15 -16 -16 -15 -15 -16 -16 -18 -18
-22 -22 -22 -22 -23 -24 -24 -24 -24 -24 -24 -24 -23 -22 -20 -19 -19 -19 -18 -17 -17 -17 -17 -17 -18 -18 -18 -18 -17 -17 -17 -17 -16 -16 -16 -16 -16 -16 -16 -16 -17 -18 -18
-22 -22 -23 -23 -24 -24 -24 -24 -24 -24 -24 -24 -23 -21 -20 -20 -20 -19 -18 -17 -17 -18 -17 -17 -18 -18 -18 -17 -17 -17 -17 -17 -16 -16 -16 -17 -17 -17 -17 -17 -18 -18 -18
-23 -24 -25 -24 -24 -24 -24 -24 -24 -24 -25 -23 -23 -22 -21 -20 -20 -20 -19 -18 -17 -17 -17 -17 -17 -18 -16 -17 -16 -17 -17 -16 -16 -17 -17 -17 -17 -18 -18 -18 -18 -18 -18
-24 -25 -26 -25 -25 -24 -24 -24 -24 -25 -24 -23 -22 -22 -21 -20 -20 -20 -19 -19 -18 -17 -17 -17 -17 -17 -16 -16 -16 -16 -17 -17 -17 -18 -18 -18 -18 -18 -19 -18 -18 -18 -18
-25 -26 -26 -26 -25 -24 -24 -24 -24 -24 -24 -24 -23 -22 -21 -20 -20 -20 -19 -19 -19 -18 -18 -18 -16 -17 -17 -17 -17 -17 -17 -18 -18 -18 -19 -19 -19 -19 -19 -19 -19 -19 -19
-26 -26 -26 -25 -25 -25 -24 -24 -24 -24 -24 -23 -23 -21 -21 -20 -20 -20 -20 -20 -20 -19 -19 -19 -18 -18 -18 -18 -18 -18 -18 -18 -19 -19 -19 -19 -19 -19 -19 -19 -20 -20 -20
-26 -26 -26 -25 -25 -25 -24 -23 -23 -24 -23 -23 -23 -22 -21 -20 -20 -20 -20 -20 -20 -20 -20 -19 -19 -19 -19 -19 -19 -19 -19 -19 -19 -19 -19 -19 -19 -19 -19 -20 -20 -20 -20
-26 -26 -25 -25 -25 -25 -25 -24 -24 -23 -23 -22 -22 -22 -22 -21 -21 -20 -20 -20 -20 -20 -20 -20 -20 -20 -20 -20 -20 -19 -20 -20 -20 -20 -20 -20 -20 -20 -20 -20 -20 -21 -21
-26 -26 -25 -25 -26 -25 -25 -24 -24 -24 -23 -23 -22 -22 -22 -22 -21 -21 -20 -20 -21 -21 -20 -20 -20 -20 -20 -20 -21 -21 -21 -21 -20 -20 -20 -20 -20 -21 -21 -21 -21 -21 -22
-26 -25 -25 -25 -25 -25 -25 -25 -24 -24 -24 -23 -23 -22 -22 -22 -22 -21 -21 -21 -20 -21 -21 -21 -21 -21 -21 -21 -21 -21 -21 -21 -21 -21 -21 -21 -21 -21 -21 -21 -21 -22 -23
Height
5778 5780 5780 5778 5778 5777 5775 5773 5772 5773 5773 5773 5771 5769 5767 5764 5763 5762 5762 5762 5760 5756 5755 5756 5755 5756 5756 5756 5756 5755 5754 5754 5755 5756 5756 5756 5755 5756 5758 5759 5761 5762 5762
5770 5772 5771 5771 5770 5769 5767 5765 5763 5761 5759 5759 5759 5757 5756 5755 5752 5750 5749 5749 5747 5746 5742 5742 5741 5743 5744 5743 5744 5745 5744 5744 5744 5746 5745 5743 5745 5746 5748 5749 5751 5752 5752
5760 5761 5762 5762 5761 5758 5757 5756 5753 5748 5744 5743 5746 5745 5744 5741 5740 5740 5738 5735 5732 5731 5728 5728 5727 5729 5731 5731 5733 5732 5732 5733 5733 5734 5734 5732 5733 5736 5737 5738 5740 5741 5742
5749 5750 5751 5750 5749 5747 5747 5745 5742 5738 5733 5727 5730 5730 5731 5729 5725 5723 5720 5719 5717 5716 5713 5713 5711 5715 5717 5718 5719 5720 5722 5723 5723 5722 5721 5723 5724 5725 5726 5728 5727 5729 5730
5734 5733 5733 5733 5733 5732 5731 5729 5726 5723 5720 5715 5710 5712 5711 5709 5704 5703 5701 5699 5699 5700 5699 5698 5695 5696 5702 5702 5705 5706 5708 5710 5711 5712 5709 5710 5711 5713 5715 5715 5716 5717 5717
5723 5720 5719 5717 5714 5713 5711 5708 5707 5705 5702 5697 5690 5685 5685 5684 5679 5677 5676 5677 5676 5677 5678 5681 5680 5677 5684 5687 5690 5692 5693 5698 5700 5699 5698 5698 5699 5700 5702 5704 5703 5703 5704
5710 5711 5705 5700 5698 5695 5693 5692 5688 5685 5683 5680 5671 5661 5656 5653 5649 5646 5643 5644 5652 5651 5652 5655 5659 5661 5665 5670 5674 5677 5678 5682 5686 5686 5687 5685 5686 5686 5690 5692 5693 5692 5691
5699 5694 5689 5684 5679 5676 5676 5671 5669 5664 5657 5653 5648 5639 5627 5615 5611 5605 5605 5605 5611 5622 5624 5626 5633 5639 5645 5651 5656 5661 5662 5665 5671 5672 5673 5673 5667 5672 5676 5679 5679 5680 5679
5680 5677 5673 5669 5664 5660 5657 5652 5648 5642 5630 5617 5613 5608 5593 5583 5573 5571 5567 5565 5573 5584 5593 5598 5605 5613 5622 5631 5638 5643 5645 5648 5655 5657 5659 5659 5659 5662 5660 5664 5666 5668 5665
5665 5659 5654 5652 5648 5641 5637 5626 5616 5613 5607 5589 5577 5569 5563 5555 5552 5546 5543 5536 5536 5546 5561 5571 5581 5590 5602 5611 5618 5624 5629 5631 5640 5643 5645 5645 5645 5643 5645 5647 5652 5655 5656
5647 5643 5638 5634 5628 5622 5614 5602 5586 5582 5576 5562 5551 5545 5540 5535 5532 5529 5524 5516 5513 5524 5534 5547 5557 5569 5580 5591 5599 5605 5611 5615 5623 5628 5630 5629 5633 5631 5635 5635 5637 5641 5642
5631 5626 5621 5615 5608 5598 5589 5580 5566 5556 5546 5540 5533 5527 5524 5520 5516 5512 5506 5499 5495 5495 5513 5523 5535 5546 5558 5569 5579 5587 5593 5598 5606 5611 5615 5620 5619 5616 5622 5622 5622 5625 5628
5609 5603 5597 5590 5582 5574 5566 5557 5550 5536 5524 5519 5516 5510 5511 5506 5502 5499 5492 5483 5481 5489 5498 5508 5515 5530 5540 5550 5560 5567 5576 5576 5590 5596 5600 5603 5603 5604 5607 5608 5608 5610 5610
5590 5583 5575 5565 5556 5549 5541 5533 5528 5515 5503 5494 5496 5494 5498 5494 5491 5486 5480 5471 5470 5478 5485 5494 5506 5516 5527 5534 5541 5553 5561 5570 5575 5575 5582 5592 5586 5588 5592 5595 5596 5596 5597
5568 5558 5551 5543 5538 5528 5520 5510 5501 5493 5484 5479 5479 5481 5485 5483 5480 5474 5464 5462 5466 5471 5479 5488 5495 5506 5511 5521 5529 5537 5536 5552 5563 5565 5564 5573 5572 5579 5579 5580 5580 5581 5586
5550 5545 5537 5530 5521 5512 5504 5497 5490 5484 5475 5468 5467 5472 5475 5475 5471 5461 5453 5451 5459 5464 5471 5480 5489 5496 5504 5511 5521 5529 5536 5543 5547 5543 5553 5559 5565 5566 5566 5566 5569 5574 5579
5536 5529 5523 5514 5506 5500 5494 5488 5480 5472 5466 5459 5461 5464 5465 5467 5463 5453 5445 5444 5452 5458 5464 5472 5480 5487 5496 5504 5512 5519 5524 5529 5535 5539 5542 5548 5550 5553 5554 5559 5562 5567 5573
5522 5516 5507 5503 5495 5490 5484 5477 5470 5461 5457 5454 5456 5457 5460 5460 5457 5450 5444 5442 5447 5451 5457 5464 5471 5479 5487 5494 5500 5506 5512 5517 5522 5526 5531 5534 5538 5542 5547 5551 5557 5561 5565
5509 5501 5494 5489 5483 5479 5474 5467 5460 5454 5450 5450 5452 5453 5455 5456 5453 5447 5444 5439 5439 5444 5449 5457 5464 5469 5475 5480 5489 5496 5501 5506 5512 5518 5520 5524 5531 5536 5542 5545 5546 5552 5556
5490 5485 5481 5478 5473 5470 5464 5457 5452 5448 5446 5446 5448 5449 5449 5451 5450 5447 5445 5441 5436 5437 5441 5448 5454 5460 5465 5473 5480 5484 5490 5500 5501 5507 5515 5521 5526 5531 5533 5537 5539 5545 5547
5479 5473 5473 5470 5465 5460 5454 5450 5446 5443 5443 5442 5442 5445 5447 5446 5447 5447 5445 5444 5443 5441 5442 5445 5447 5452 5460 5467 5469 5481 5486 5492 5500 5505 5511 5517 5522 5525 5527 5530 5534 5537 5538
5470 5467 5467 5463 5458 5452 5448 5443 5438 5437 5436 5437 5437 5440 5443 5443 5443 5446 5446 5447 5447 5448 5449 5450 5453 5454 5460 5465 5468 5476 5482 5490 5497 5501 5506 5511 5515 5518 5522 5524 5526 5527 5529
5464 5462 5460 5457 5452 5447 5442 5436 5433 5431 5430 5431 5432 5435 5438 5439 5440 5443 5445 5447 5447 5449 5450 5454 5457 5459 5463 5466 5471 5477 5483 5488 5494 5498 5501 5505 5509 5513 5515 5516 5517 5519 5522
5458 5457 5455 5452 5448 5443 5437 5434 5430 5426 5423 5425 5428 5430 5432 5435 5437 5439 5442 5446 5447 5448 5450 5454 5457 5460 5464 5468 5472 5476 5481 5485 5489 5493 5496 5499 5502 5504 5506 5508 5510 5510 5512
5453 5452 5451 5448 5445 5440 5435 5431 5428 5423 5419 5420 5422 5425 5428 5430 5432 5436 5439 5441 5445 5449 5450 5453 5456 5459 5462 5466 5470 5473 5477 5480 5483 5486 5489 5491 5493 5495 5497 5499 5500 5502 5503
5449 5448 5447 5445 5442 5437 5434 5430 5426 5423 5419 5417 5420 5422 5425 5427 5429 5432 5434 5437 5441 5445 5447 5450 5453 5456 5459 5462 5465 5467 5470 5472 5475 5478 5480 5483 5485 5487 5487 5488 5489 5490 5492
Wind_Speed
36 34 33 36 38 40 41 42 43 46 47 49 47 48 46 47 47 45 45 44 42 41 43 36 41 40 36 41 43 46 47 46 46 46 46 46 46 49 46 39 39 36 35
37 35 36 37 40 43 45 47 48 50 52 54 53 52 54 55 52 52 52 52 48 44 45 43 40 42 43 44 46 47 48 48 47 47 48 49 49 48 48 45 43 44 44
40 40 42 43 44 45 47 49 50 54 59 61 60 62 61 61 62 61 59 58 59 57 52 51 48 46 46 50 51 50 50 49 50 49 50 50 50 48 50 48 45 48 42
41 42 43 46 51 54 54 54 57 59 61 64 66 65 65 66 68 70 69 68 65 63 63 58 56 53 49 50 52 54 51 52 52 50 50 51 52 50 52 54 48 48 55
54 57 54 53 55 56 58 62 64 64 65 65 67 66 69 73 75 78 77 79 76 73 67 64 60 56 54 52 52 54 55 52 55 54 50 53 53 52 53 55 48 44 48
60 62 58 61 64 65 67 68 68 68 68 70 73 75 78 78 81 81 81 85 83 82 79 74 68 62 56 56 56 54 57 55 55 58 57 53 54 54 52 53 49 49 47
65 61 64 67 69 69 71 72 73 76 76 76 84 89 89 90 91 93 93 89 89 87 83 82 79 70 64 58 57 56 58 59 56 59 62 54 53 56 50 45 48 53 53
64 71 72 72 75 75 75 79 78 80 86 91 92 96 102 106 108 109 104 99 98 95 82 77 79 79 73 63 58 60 60 61 60 62 58 63 57 63 55 50 46 45 59
74 72 74 74 75 77 79 82 83 89 96 102 102 103 108 108 101 91 91 97 89 95 94 76 75 74 72 70 61 58 64 65 61 65 65 63 65 73 61 58 52 61 68
69 70 73 73 75 78 83 90 96 96 94 101 97 94 86 81 68 56 58 61 66 73 78 72 73 72 72 67 66 67 65 70 64 62 69 67 64 51 58 52 50 47 48
67 71 73 75 80 85 89 93 97 93 90 87 75 74 73 65 55 45 50 59 58 57 60 63 64 73 73 71 67 67 69 72 63 64 68 66 57 65 44 51 56 59 57
70 74 78 83 86 88 87 85 80 76 78 73 75 72 68 52 54 52 60 51 46 50 56 58 63 63 64 66 65 67 72 68 67 67 70 65 59 61 58 56 49 56 62
75 80 83 86 85 80 77 77 74 78 79 79 76 69 58 43 40 43 43 48 52 49 54 57 64 64 68 70 70 69 72 72 66 70 69 58 64 57 58 44 43 54 49
79 80 80 78 76 71 72 75 73 75 78 77 65 55 46 36 38 41 38 39 43 48 38 35 49 55 63 66 66 64 65 65 66 77 58 63 49 41 38 45 48 43 41
74 75 71 68 65 68 69 69 68 63 60 55 46 44 31 34 38 34 39 34 45 42 48 48 52 58 63 65 61 60 59 47 60 68 69 54 33 35 42 48 47 42 44
70 67 61 62 62 61 55 51 55 54 50 41 31 32 25 32 31 39 38 30 39 42 51 53 44 52 59 57 53 51 51 51 54 58 60 55 39 34 32 27 24 25 28
59 60 59 58 51 45 52 48 49 48 42 32 26 20 20 22 26 32 27 27 37 44 41 50 52 50 51 49 50 51 55 55 50 51 45 28 29 32 26 23 24 27 32
58 57 56 53 48 47 48 50 50 47 39 28 25 18 15 21 28 22 24 23 27 23 26 49 51 50 47 47 46 49 55 55 52 34 36 33 36 33 29 28 28 27 28
54 56 54 49 44 45 50 47 43 39 30 29 26 17 20 12 20 22 18 14 31 27 28 34 46 44 53 55 54 42 54 47 44 40 34 31 31 30 29 24 24 24 27
56 56 49 43 45 47 45 40 37 25 24 28 27 22 23 10 16 15 14 13 7 24 37 41 48 40 47 51 58 40 39 36 28 20 24 26 26 22 21 23 22 24 26
52 46 37 36 42 44 40 40 34 25 24 28 28 19 16 10 7 9 10 7 10 5 11 26 34 35 39 30 29 30 31 25 21 20 18 19 21 23 23 24 25 26 26
43 31 25 33 38 38 39 39 30 27 25 31 30 19 18 8 12 18 11 5 6 3 9 10 14 17 19 21 22 24 22 21 17 20 19 20 20 22 24 25 26 26 29
24 18 26 29 30 35 35 32 28 23 25 25 27 20 22 21 23 8 6 5 6 6 5 7 8 11 11 11 12 14 15 16 17 21 22 21 23 24 26 26 28 29 30
14 21 23 24 26 28 25 24 27 21 23 28 24 23 23 21 20 12 10 11 9 8 8 9 7 4 6 10 13 13 14 16 17 20 21 22 24 26 27 29 31 33 35
15 20 18 21 21 20 16 8 8 7 13 26 28 27 25 22 17 12 20 17 12 13 12 13 13 12 13 15 13 15 18 20 21 21 23 25 26 28 31 33 34 36 38
15 14 18 16 15 15 17 17 12 10 4 7 28 29 26 20 20 22 25 21 20 18 20 18 18 19 20 23 24 22 22 23 24 26 27 28 29 29 31 33 35 37 41
Wind_Direction
270 273 274 273 272 273 276 277 277 269 268 264 272 268 263 262 267 267 267 266 269 271 276 281 285 276 281 278 272 272 273 272 272 270 272 274 273 273 275 279 273 275 270
273 273 274 274 275 276 275 276 278 279 275 271 269 274 271 268 264 262 264 266 261 266 269 269 273 278 272 269 270 272 272 273 272 269 268 269 270 272 274 276 271 271 271
280 278 275 274 276 279 278 276 278 280 281 277 272 274 275 275 270 269 264 258 258 257 258 261 261 263 269 272 269 267 270 271 271 269 266 267 270 271 272 276 276 277 274
284 285 281 281 280 278 275 275 278 279 281 282 277 275 274 274 276 273 268 266 262 257 256 257 258 258 262 266 271 269 269 273 272 267 269 269 267 267 269 273 273 274 274
288 292 291 289 288 286 283 280 280 278 280 279 280 277 275 272 271 273 271 267 265 265 263 257 254 256 258 261 266 270 273 272 269 271 270 270 268 266 264 268 272 277 274
285 289 292 293 290 287 283 282 283 284 281 280 280 280 277 275 274 271 268 266 264 261 260 262 259 251 251 256 261 266 271 271 270 269 272 270 267 267 265 267 266 266 271
285 290 289 286 286 283 284 287 288 286 283 282 280 280 280 281 278 274 269 264 263 261 260 257 255 258 252 250 255 260 264 269 269 267 269 271 267 268 264 265 268 269 267
291 286 287 289 290 291 291 290 291 292 292 289 286 284 283 282 280 276 271 266 260 256 255 252 256 254 252 250 248 253 258 262 267 267 266 271 262 270 263 261 270 278 278
287 290 290 290 293 295 297 297 295 294 293 290 289 286 282 281 281 282 278 273 268 257 253 247 245 249 247 248 248 249 253 257 263 267 266 268 273 268 272 264 284 270 276
291 290 291 294 297 296 294 294 293 295 294 292 289 286 283 281 284 280 279 274 262 250 248 250 243 242 245 240 243 247 251 255 261 266 266 266 270 270 272 275 272 268 273
287 291 293 294 293 293 294 293 291 292 291 288 285 284 286 287 275 281 293 276 262 244 236 240 242 246 245 240 239 241 246 251 259 263 265 269 267 275 283 269 275 268 270
289 291 294 296 296 294 292 292 293 293 287 286 284 287 288 283 283 286 288 271 257 243 231 233 235 231 235 235 237 244 244 245 253 257 261 266 262 271 273 277 273 273 270
294 296 296 294 291 292 296 295 295 291 288 284 282 282 284 289 287 283 296 267 251 246 243 227 229 229 231 231 233 236 240 244 247 252 259 260 268 269 265 275 277 275 275
295 294 293 293 297 298 297 296 292 285 281 279 281 278 273 282 277 284 309 251 249 251 246 223 231 228 232 234 231 235 238 243 249 251 256 263 269 269 271 271 269 259 264
296 294 295 297 300 301 302 294 294 297 295 290 276 267 271 278 277 305 325 252 240 238 238 234 227 230 236 235 234 235 251 239 249 254 254 252 259 268 266 265 262 256 256
292 294 296 299 306 301 296 295 302 306 304 295 258 253 265 276 298 322 310 248 227 226 239 234 250 235 237 240 238 237 241 245 245 248 254 254 260 259 259 254 252 246 238
293 294 300 306 298 287 294 299 310 306 308 290 234 238 268 281 306 329 303 245 229 225 229 242 241 242 237 240 242 242 241 243 246 248 264 250 247 244 236 239 235 230 234
293 299 302 304 289 290 300 300 305 306 306 266 230 238 259 285 306 325 340 233 233 231 247 235 238 239 230 232 236 237 240 242 233 246 238 256 249 231 229 230 233 241 247
298 300 297 298 286 297 303 304 309 306 303 256 235 243 269 273 306 339 324 339 251 231 244 240 237 227 230 218 232 228 237 247 223 236 245 240 223 226 229 232 232 246 252
299 295 293 291 288 300 309 315 307 302 291 254 233 236 250 304 302 339 334 355 295 240 240 242 230 239 233 235 226 222 220 232 206 213 216 222 226 224 236 243 248 254 254
295 294 291 291 293 305 313 313 301 287 273 267 252 237 251 236 319 338 347 6 44 80 223 216 221 224 224 211 193 214 200 188 202 212 208 220 229 236 243 249 253 258 265
295 288 290 297 305 311 310 309 309 287 275 268 259 220 225 246 316 262 288 320 14 88 102 110 130 139 160 171 173 176 178 195 210 217 228 235 241 250 253 254 257 262 262
286 295 304 306 309 308 308 311 311 297 269 270 253 240 217 228 246 234 265 339 330 351 84 117 134 140 159 156 164 183 191 202 216 226 231 239 247 256 260 261 264 261 262
283 300 310 307 311 309 310 311 310 306 266 242 238 241 236 240 255 217 226 246 277 303 314 301 291 274 224 211 210 222 220 226 232 239 242 247 252 257 259 260 259 258 259
285 301 304 310 312 324 344 323 308 2 298 243 232 238 243 249 245 240 221 231 249 261 255 262 258 253 233 223 229 232 234 239 243 247 249 249 254 254 256 259 263 265 265
284 299 311 304 312 336 343 358 16 26 7 292 240 250 262 272 251 226 207 218 263 255 243 238 236 222 223 236 242 239 236 238 241 246 249 250 253 258 261 263 266 268 269